Startseite
Über Mich
AHP4
Galerie
Sehschlangen
Tourenbuch
Bookmarks
Elektronik
Bewertung
Geschichten
[Tagesmessung] [Jahreswerte] [Information]

Messwerte vom 01.03.2022

Die letzten Messwerte von 23:58:47 Uhr:
KategorieMesswert
Temperatur [°C]-1
Luftdruck [mBar]1013
Sonneneinstrahlung0
Wind [km/h]0 aus Nordwest
Niederschlag [l/m²]0
rel.Luftfeucht.81.2%
CO2 [ppm]527

Diagramme
Messwerte vom 01.03.2022
Tagesaggregation
KategorieMinimumMaximumSchnittSumme
Temperatur [°C]-4131.4563
Luftdruck [mBar]101210171014.2042
Sonneneinstrahlung24593.2563
Wind [km/h]0
rF [%]36.592.672.68
Niederschlag [l/m²]0
CO2 [ppm]403878622.9
Einordnung alsFrosttag
Vegetationstag

Messungen an benachbarten Tagen: Zur Jahresaggregation 2022
Tabelle aller Messwerte
UhrzeitTemperatur [°C]Luftdruck [mBar]SonneWind [km/h]RichtungRegen [l/m²]rF [%]CO2 [ppm]
00:01:49 -1 1017 0 0 NO 0 86.5 832
00:04:46 -1 1017 0 0 N 0 86.1 831
00:07:48 -1 1017 0 0 NO 0 85.8 823
00:10:50 -1 1017 0 0 NO 0 85.7 823
00:13:48 -2 1017 0 0 SO 0 85.9 823
00:16:46 -2 1017 0 0 N 0 85.9 821
00:19:46 -2 1016 0 0 O 0 86 820
00:22:47 -2 1017 0 0 N 0 85.9 818
00:25:46 -2 1017 0 0 W 0 85.8 822
00:28:47 -2 1016 0 0 SO 0 85.6 823
00:31:50 -2 1016 0 0 SO 0 85.2 820
00:34:49 -2 1017 0 0 NO 0 85.2 820
00:37:48 -1 1017 0 0 SO 0 85.2 823
00:40:48 -1 1016 0 0 NW 0 84.9 823
00:43:45 -1 1017 0 0 O 0 84.5 816
00:46:46 -1 1016 0 0 NO 0 84.2 821
00:49:47 -1 1017 0 0 O 0 84 822
00:52:47 -1 1017 0 0 S 0 83.7 821
00:55:48 -1 1017 0 0 NO 0 83.3 814
00:58:49 -1 1016 0 0 SW 0 82.9 811
01:01:48 -1 1017 0 0 SW 0 82.5 807
01:04:46 -1 1017 0 0 NW 0 82.3 814
01:07:47 -1 1016 0 0 S 0 82.1 815
01:10:48 -1 1015 0 0 O 0 82 810
01:13:46 -1 1016 0 0 N 0 81.9 808
01:16:44 -1 1017 0 0 N 0 81.8 807
01:19:47 -1 1016 0 0 SO 0 81.7 810
01:22:48 -1 1016 0 0 N 0 81.8 807
01:25:44 -1 1016 0 0 0 81.9 811
01:28:48 -1 1016 0 0 SO 0 82.1 805
01:31:45 -1 1017 0 0 NO 0 82 808
01:34:46 -1 1016 0 0 SO 0 82 805
01:37:47 -1 1016 0 0 NW 0 81.7 814
01:40:46 -1 1016 0 0 N 0 81.7 805
01:43:46 -2 1017 0 0 SO 0 81.6 796
01:46:45 -2 1016 0 0 NO 0 81.6 788
01:49:48 -2 1016 0 0 SW 0 82.3 791
01:52:47 -2 1016 0 0 NO 0 82.9 790
01:55:45 -2 1016 0 0 SO 0 83.1 794
01:58:46 -2 1016 0 0 O 0 83.5 798
02:01:48 -2 1016 0 0 SO 0 83.6 797
02:04:47 -2 1015 0 0 SO 0 83.8 795
02:07:48 -2 1016 0 0 NW 0 84.1 788
02:10:47 -2 1016 0 0 N 0 84.3 790
02:13:46 -2 1016 0 0 O 0 84.4 784
02:16:46 -2 1016 0 0 NO 0 84.6 776
02:19:47 -3 1015 0 0 O 0 84.7 779
02:22:45 -3 1016 0 0 O 0 84.9 785
02:25:47 -3 1017 0 0 NO 0 85.1 779
02:28:47 -3 1015 0 0 N 0 85.5 779
02:31:48 -3 1016 0 0 SO 0 85.5 778
02:34:50 -3 1016 0 0 N 0 85.5 778
02:37:46 -3 1015 0 0 O 0 85.7 776
02:40:47 -3 1016 0 0 NO 0 86.1 773
02:43:48 -3 1016 0 0 S 0 86.4 781
02:46:48 -3 1016 0 0 SO 0 86.5 785
02:49:49 -3 1016 0 0 O 0 86.2 785
02:52:47 -3 1016 0 0 N 0 86.1 779
02:55:46 -3 1016 0 0 SO 0 86.1 777
02:58:47 -3 1016 0 0 NO 0 86.1 779
03:01:48 -3 1016 0 0 SO 0 86 773
03:04:46 -3 1016 0 0 NO 0 85.8 766
03:07:47 -3 1016 0 0 O 0 86 763
03:10:49 -3 1016 0 0 N 0 86.4 770
03:13:47 -3 1016 0 0 SW 0 86.4 779
03:16:49 -3 1016 0 0 NO 0 86.4 781
03:19:47 -3 1016 0 0 N 0 86.4 783
03:22:46 -3 1016 0 0 O 0 86.7 781
03:25:46 -3 1015 0 0 NO 0 86.9 771
03:28:49 -3 1015 0 0 NO 0 86.6 777
03:31:47 -3 1015 0 0 NO 0 86.8 772
03:34:46 -3 1015 0 0 O 0 87 770
03:37:46 -3 1015 0 0 NO 0 87.3 765
03:40:47 -3 1015 0 0 O 0 87.5 762
03:43:47 -3 1016 0 0 NO 0 87.4 755
03:46:45 -3 1016 0 0 O 0 87.8 756
03:49:47 -3 1016 0 0 S 0 88.2 750
03:52:46 -3 1016 0 0 NO 0 88.1 758
03:55:49 -3 1016 0 0 SO 0 88.3 753
03:58:47 -3 1016 0 0 N 0 88.6 761
04:01:44 -3 1015 0 0 0 89 764
04:04:48 -3 1015 0 0 NO 0 89.5 764
04:07:47 -3 1016 0 0 SO 0 89.3 764
04:10:47 -3 1015 0 0 NO 0 89 759
04:13:47 -3 1015 0 0 N 0 89 758
04:16:47 -3 1015 0 0 NO 0 89 766
04:19:46 -4 1015 0 0 SO 0 89.1 767
04:22:46 -4 1015 0 0 N 0 89.2 767
04:25:47 -4 1015 0 0 NO 0 89.4 757
04:28:46 -4 1016 0 0 O 0 89.7 753
04:31:47 -4 1016 0 0 O 0 89.9 757
04:34:46 -4 1015 0 0 O 0 90.1 760
04:37:47 -4 1016 0 0 NW 0 90.1 746
04:40:47 -4 1015 0 0 N 0 90.2 736
04:43:45 -4 1015 0 0 N 0 90.5 734
04:46:46 -4 1016 0 0 N 0 90.5 733
04:49:46 -4 1015 0 0 N 0 90.7 733
04:52:47 -4 1015 0 0 NO 0 91 727
04:55:47 -4 1015 0 0 NO 0 90.7 726
04:58:45 -4 1015 0 0 NO 0 90.3 726
05:01:47 -4 1015 0 0 N 0 91 723
05:04:48 -4 1015 0 0 NO 0 91 723
05:07:46 -4 1017 0 0 O 0 90.9 726
05:10:47 -4 1015 0 0 O 0 90.5 726
05:13:45 -4 1014 0 0 N 0 90.2 728
05:16:46 -4 1015 0 0 N 0 90.2 715
05:19:47 -4 1015 0 0 NO 0 90.7 718
05:22:47 -4 1015 0 0 NO 0 90.7 723
05:25:47 -4 1014 0 0 N 0 90.8 720
05:28:45 -4 1015 0 0 N 0 91 714
05:31:45 -4 1015 0 0 N 0 91.2 710
05:34:47 -4 1015 0 0 SO 0 91.2 711
05:37:44 -4 1014 0 0 N 0 91.1 713
05:40:47 -4 1015 0 0 NO 0 91.6 713
05:43:46 -4 1015 0 0 NO 0 91.9 712
05:46:48 -4 1015 0 0 NW 0 92 722
05:49:47 -4 1016 0 0 NW 0 91.9 718
05:52:45 -4 1015 0 0 N 0 91.7 726
05:55:45 -4 1015 0 0 NO 0 91.7 725
05:58:44 -4 1015 0 0 N 0 91.7 723
06:01:46 -4 1014 0 0 NO 0 91.4 724
06:04:45 -4 1015 0 0 N 0 91.4 717
06:07:45 -4 1014 0 0 O 0 91.5 714
06:10:46 -4 1015 0 0 NO 0 91.6 726
06:13:45 -4 1015 0 0 N 0 91.6 729
06:16:47 -4 1015 0 0 NO 0 91.8 727
06:19:48 -4 1016 0 0 NO 0 91.8 726
06:22:50 -4 1014 0 0 NW 0 91.7 720
06:25:50 -4 1015 0 0 NO 0 91.6 720
06:28:45 -4 1015 0 0 N 0 91.7 724
06:31:47 -4 1015 0 0 NO 0 91.7 722
06:34:47 -4 1014 0 0 W 0 91.8 722
06:37:46 -4 1014 0 0 O 0 91.9 716
06:40:46 -4 1015 4 0 N 0 91.8 720
06:43:50 -4 1015 7 0 SO 0 91.8 716
06:46:47 -4 1014 12 0 O 0 91.9 720
06:49:46 -4 1015 19 0 N 0 92.1 718
06:52:46 -4 1014 28 0 N 0 92.1 722
06:55:49 -4 1015 40 0 NO 0 92.1 723
06:58:47 -4 1015 52 0 NO 0 92 732
07:01:46 -4 1015 66 0 SO 0 92.1 737
07:04:48 -4 1015 79 0 O 0 92.3 723
07:07:47 -4 1016 92 0 N 0 92.6 723
07:10:47 -4 1015 103 0 NO 0 92.5 720
07:13:47 -4 1015 114 0 O 0 92.5 715
07:16:47 -4 1016 122 0 NO 0 92.5 721
07:19:48 -4 1015 130 0 N 0 92.4 726
07:22:47 -4 1015 137 0 NO 0 92.4 729
07:25:46 -4 1015 143 0 O 0 92.4 745
07:28:46 -4 1015 149 0 O 0 92.4 752
07:31:47 -4 1016 153 0 W 0 92.3 761
07:34:46 -4 1016 157 0 O 0 92 773
07:37:48 -4 1016 160 0 NO 0 91.6 774
07:40:48 -4 1016 163 0 N 0 91.3 775
07:43:47 -4 1016 166 0 O 0 91.3 775
07:46:49 -3 1016 168 0 NO 0 91.5 773
07:49:49 -3 1015 170 0 O 0 91.5 772
07:52:45 -3 1016 172 0 N 0 91.3 767
07:55:46 -3 1015 173 0 S 0 91.6 767
07:58:46 -3 1015 175 0 N 0 91.7 767
08:01:48 -3 1016 176 0 O 0 91.9 768
08:04:48 -3 1016 177 0 NO 0 91.4 773
08:07:49 -3 1015 178 0 W 0 91.2 780
08:10:49 -3 1016 179 0 O 0 91.2 778
08:13:46 -3 1015 180 0 O 0 91.4 780
08:16:46 -3 1016 181 0 O 0 91.4 782
08:19:48 -3 1016 182 0 O 0 91.3 795
08:22:51 -3 1015 183 0 SW 0 91.2 792
08:25:49 -3 1015 183 0 O 0 91 796
08:28:49 -3 1015 184 0 NO 0 90.9 795
08:31:48 -3 1015 185 0 N 0 90.7 801
08:34:49 -3 1015 185 0 NO 0 90.5 800
08:37:49 -2 1015 185 0 NO 0 90.3 794
08:40:49 -2 1016 186 0 N 0 90.4 790
08:43:47 -2 1015 186 0 NO 0 90.2 796
08:46:47 -2 1016 187 0 O 0 89.8 801
08:49:50 -2 1016 187 0 SW 0 89.7 815
08:52:47 -2 1015 188 0 S 0 89.5 807
08:55:49 -2 1016 188 0 NO 0 89.4 814
08:58:46 -2 1015 188 0 O 0 89 814
09:01:48 -2 1016 189 0 O 0 88.4 813
09:04:50 -2 1016 189 0 NO 0 88 818
09:07:49 -1 1016 190 0 NO 0 87.6 826
09:10:49 -1 1016 190 0 SO 0 87.3 830
09:13:50 -1 1016 190 0 SO 0 86.9 832
09:16:45 -1 1015 191 0 0 86.9 826
09:19:50 -1 1015 191 0 NW 0 87 834
09:22:48 -1 1015 191 0 SO 0 86.7 826
09:25:51 -1 1015 192 0 NO 0 86.4 821
09:28:51 -1 1015 192 0 NW 0 86.1 820
09:31:48 -1 1015 192 0 N 0 85.2 826
09:34:49 -1 1015 193 0 NO 0 84.7 829
09:37:48 0 1015 193 0 NO 0 84.1 834
09:40:48 0 1015 193 0 W 0 83.6 831
09:43:48 0 1015 193 0 N 0 83 837
09:46:49 0 1015 194 0 NO 0 82.7 849
09:49:47 0 1014 194 0 O 0 82 861
09:52:47 0 1014 194 0 NO 0 81.3 864
09:55:46 0 1014 194 0 N 0 81 861
09:58:46 0 1014 195 0 O 0 80.6 866
10:01:48 0 1015 195 0 W 0 80.1 875
10:04:47 0 1015 196 0 NO 0 79.7 872
10:07:50 1 1014 197 0 NW 0 79.5 872
10:10:49 1 1015 198 0 O 0 79.7 866
10:13:48 1 1015 200 0 N 0 79.7 860
10:16:49 1 1015 201 0 SW 0 79.4 848
10:19:49 1 1015 202 0 NO 0 79.1 858
10:22:46 1 1014 203 0 O 0 79 855
10:25:48 1 1015 203 0 S 0 79 846
10:28:49 1 1014 205 0 SO 0 78.9 855
10:31:52 1 1015 204 0 W 0 78.3 858
10:34:47 2 1015 205 0 NW 0 77.6 862
10:37:51 2 1015 208 0 SW 0 76.8 858
10:40:47 2 1015 208 0 SO 0 76.3 858
10:43:47 2 1015 208 0 W 0 76.2 856
10:46:46 2 1015 205 0 S 0 76 864
10:49:46 2 1015 209 0 S 0 75.4 872
10:52:46 2 1014 208 0 O 0 75.3 869
10:55:48 2 1015 208 0 S 0 75 878
10:58:48 2 1015 208 0 SO 0 74.1 585
11:01:46 2 1015 207 0 O 0 74.7 579
11:04:48 2 1015 207 0 SW 0 73.7 565
11:07:49 3 1015 206 0 S 0 73.5 553
11:10:47 3 1014 204 0 NO 0 73.1 562
11:13:45 3 1014 206 0 O 0 73 559
11:16:46 3 1015 206 0 S 0 73.2 565
11:19:48 3 1014 206 0 O 0 73 566
11:22:47 3 1014 206 0 SO 0 72.6 568
11:25:48 3 1014 207 0 SW 0 71.7 577
11:28:46 4 1014 208 0 S 0 70.6 592
11:31:47 4 1014 209 0 S 0 70.8 592
11:34:48 4 1014 209 0 O 0 70.5 590
11:37:50 4 1014 210 0 SO 0 68.2 594
11:40:48 4 1014 211 0 NO 0 67.9 597
11:43:50 4 1015 213 0 SO 0 68.5 597
11:46:47 5 1014 214 0 SW 0 68.6 592
11:49:49 6 1014 215 0 SO 0 66.6 594
11:52:47 6 1014 216 0 S 0 65.3 594
11:55:48 7 1014 217 0 N 0 60.3 591
11:58:48 7 1014 219 0 SO 0 58.6 588
12:01:48 7 1015 220 0 NW 0 58.8 587
12:04:49 9 1014 220 0 SO 0 60.9 579
12:07:48 10 1014 221 0 O 0 60.2 585
12:10:32 7 1014 221 0 S 0 51.6 587
12:13:49 10 1014 222 0 NW 0 49.6 602
12:16:48 10 1014 222 0 NO 0 50.2 603
12:19:48 10 1014 222 0 SO 0 51.5 597
12:22:46 9 1014 224 0 N 0 52.9 600
12:25:46 9 1014 225 0 O 0 51.7 609
12:28:51 9 1014 225 0 SO 0 50.9 609
12:31:48 9 1014 226 0 SO 0 51.2 609
12:34:47 9 1014 227 0 O 0 51.7 598
12:37:45 9 1014 205 0 S 0 51.7 594
12:40:47 9 1014 217 0 O 0 51.8 404
12:43:48 10 1014 228 0 SO 0 51.2 407
12:46:47 10 1014 228 0 SO 0 51.5 407
12:49:50 11 1014 227 0 N 0 51.6 405
12:52:49 11 1014 228 0 SO 0 50.4 407
12:55:48 11 1013 228 0 S 0 48.4 406
12:58:49 11 1013 228 0 SO 0 48.5 407
13:01:47 11 1013 227 0 SO 0 49.5 404
13:04:48 10 1014 227 0 O 0 46 404
13:07:47 10 1013 227 0 S 0 46.6 407
13:10:48 9 1014 226 0 SO 0 48.2 404
13:13:48 9 1014 228 0 SO 0 49.7 404
13:16:46 10 1014 228 0 S 0 51.3 404
13:19:48 10 1013 228 0 SO 0 48.2 407
13:22:46 11 1013 226 0 O 0 47.6 404
13:25:47 10 1013 227 0 SO 0 47 407
13:28:48 10 1013 227 0 SO 0 46.9 407
13:31:46 10 1013 226 0 SO 0 47.2 407
13:34:48 10 1013 228 0 W 0 48.7 404
13:37:31 9 1013 227 0 N 0 40 404
13:40:48 9 1013 228 0 NO 0 44 404
13:43:47 9 1013 229 0 SO 0 48.4 404
13:46:46 11 1013 231 0 S 0 47.5 404
13:49:47 11 1013 233 0 S 0 45.8 407
13:52:46 11 1013 234 0 N 0 42.7 407
13:55:47 10 1013 235 0 SO 0 43 407
13:58:47 11 1013 235 0 SO 0 44.3 407
14:01:47 12 1013 236 0 SO 0 43.7 406
14:04:47 12 1013 241 0 NO 0 41.6 404
14:07:47 11 1013 242 0 N 0 40.5 404
14:10:47 10 1013 242 0 NO 0 39.6 403
14:13:47 10 1013 243 0 NO 0 39.6 403
14:16:30 10 1013 244 0 S 0 40 407
14:19:46 12 1013 244 0 S 0 43.9 407
14:22:47 12 1013 244 0 S 0 41.7 407
14:25:47 13 1013 244 0 W 0 41.1 407
14:28:48 13 1013 244 0 W 0 39.4 404
14:31:47 13 1013 244 0 SO 0 38.2 407
14:34:49 13 1013 243 0 S 0 37.6 404
14:37:46 12 1013 244 0 W 0 36.7 406
14:40:47 11 1013 243 0 NW 0 39.3 406
14:43:48 12 1013 245 0 S 0 37.7 403
14:46:49 12 1013 245 0 SW 0 37.4 406
14:49:48 13 1013 244 0 SO 0 37.6 407
14:52:48 13 1013 245 0 S 0 38.2 407
14:55:48 13 1013 244 0 SW 0 38.2 410
14:58:49 13 1013 245 0 SO 0 36.5 419
15:01:49 12 1013 244 0 SW 0 36.5 415
15:04:48 12 1013 239 0 S 0 38.4 422
15:07:47 12 1013 234 0 N 0 39.7 427
15:10:49 11 1013 234 0 NW 0 38.5 439
15:13:47 10 1013 240 0 S 0 40.2 444
15:16:46 10 1013 233 0 O 0 41.3 442
15:19:47 10 1013 235 0 SW 0 41.7 439
15:22:51 10 1013 237 0 NW 0 41.7 437
15:25:47 10 1013 235 0 S 0 41.8 436
15:28:46 10 1013 235 0 W 0 42.2 436
15:31:48 10 1013 235 0 SW 0 42.2 428
15:34:50 9 1013 232 0 NW 0 42.8 439
15:37:51 9 1013 232 0 NW 0 42 439
15:40:48 9 1013 230 0 S 0 42.9 442
15:43:46 9 1013 230 0 N 0 43.2 439
15:46:47 9 1013 229 0 N 0 43.2 436
15:49:47 8 1013 231 0 NW 0 44.3 439
15:52:48 8 1013 230 0 NW 0 44.5 444
15:55:48 8 1013 229 0 NO 0 43.4 451
15:58:48 8 1013 228 0 NW 0 43.6 448
16:01:50 8 1013 228 0 NO 0 44.5 452
16:04:49 8 1013 227 0 NW 0 45.9 456
16:07:49 8 1013 227 0 NW 0 46.2 456
16:10:48 8 1013 225 0 NW 0 44.8 453
16:13:49 8 1013 223 0 NW 0 45.2 460
16:16:48 8 1013 222 0 O 0 45 466
16:19:47 8 1013 220 0 S 0 45.1 474
16:22:46 8 1013 218 0 NO 0 46.1 474
16:25:48 8 1013 214 0 NO 0 45.5 480
16:28:48 8 1013 214 0 NO 0 45.9 477
16:31:46 7 1013 216 0 NO 0 45.4 471
16:34:45 7 1013 212 0 N 0 45.5 468
16:37:49 7 1013 213 0 NW 0 46.2 468
16:40:48 7 1013 212 0 NW 0 46.7 465
16:43:48 7 1013 211 0 NW 0 46.8 465
16:46:46 7 1013 210 0 N 0 47.4 466
16:49:47 7 1013 207 0 NO 0 47.6 474
16:52:46 7 1013 205 0 O 0 47.3 483
16:55:47 7 1013 204 0 N 0 47 487
16:58:47 7 1013 203 0 NW 0 47 495
17:01:46 7 1013 200 0 N 0 47.2 495
17:04:47 7 1013 195 0 NO 0 47.9 503
17:07:46 6 1013 188 0 NO 0 47.3 495
17:10:48 6 1013 181 0 N 0 48 503
17:13:47 6 1013 174 0 NO 0 49.1 504
17:16:48 6 1013 170 0 NO 0 49.7 500
17:19:46 6 1013 166 0 N 0 49.8 497
17:22:46 6 1013 163 0 N 0 50.7 497
17:25:45 6 1013 161 0 0 50.7 499
17:28:45 6 1013 158 0 N 0 51.6 504
17:31:48 6 1013 156 0 NO 0 52.6 509
17:34:45 5 1013 152 0 N 0 52.7 501
17:37:46 5 1013 143 0 NO 0 53.9 499
17:40:48 5 1013 128 0 NO 0 53.8 500
17:43:46 5 1013 116 0 NO 0 54.2 495
17:46:47 5 1013 108 0 NO 0 54.4 501
17:49:47 5 1013 101 0 NO 0 54.9 501
17:52:47 5 1013 94 0 NO 0 55.3 504
17:55:49 4 1013 86 0 NO 0 56 503
17:58:46 4 1013 77 0 NO 0 56.8 509
18:01:47 4 1013 66 0 NO 0 57.8 516
18:04:47 4 1013 53 0 NO 0 58.8 521
18:07:46 3 1013 41 0 NO 0 59.3 527
18:10:48 3 1013 29 0 NO 0 60 538
18:13:46 3 1013 18 0 NO 0 60.5 539
18:16:45 3 1013 11 0 NO 0 61.2 542
18:19:48 3 1013 6 0 NO 0 61.8 539
18:22:47 3 1013 3 0 NO 0 62 542
18:25:46 3 1013 0 0 NO 0 62.2 527
18:28:47 2 1013 0 0 NO 0 62.8 518
18:31:46 2 1013 0 0 NO 0 63.1 507
18:34:46 2 1013 0 0 NO 0 63.5 510
18:37:47 2 1013 0 0 NO 0 63.9 512
18:40:46 2 1013 0 0 NO 0 64.2 521
18:43:47 2 1013 0 0 NO 0 64.9 539
18:46:46 2 1013 0 0 NO 0 65.1 541
18:49:47 2 1013 0 0 NO 0 65.7 533
18:52:46 2 1013 0 0 NO 0 66.6 531
18:55:46 2 1013 0 0 NO 0 67.3 533
18:58:45 2 1013 0 0 NO 0 67 545
19:01:47 2 1013 0 0 NO 0 67.2 549
19:04:46 2 1013 0 0 NO 0 67.2 558
19:07:49 2 1013 0 0 NO 0 67.5 556
19:10:48 2 1013 0 0 NO 0 67.7 560
19:13:45 2 1013 0 0 NO 0 67.8 559
19:16:46 2 1013 0 0 NO 0 68.5 563
19:19:49 2 1013 0 0 NO 0 68.7 553
19:22:46 2 1013 0 0 NO 0 68.2 539
19:25:46 2 1013 0 0 NO 0 68.1 515
19:28:46 2 1013 0 0 NO 0 68.3 518
19:31:46 1 1013 0 0 NO 0 68.5 515
19:34:45 1 1013 0 0 NO 0 68.6 512
19:37:46 1 1013 0 0 NO 0 68.8 515
19:40:47 1 1013 0 0 NO 0 69.1 512
19:43:46 1 1013 0 0 NO 0 69.1 500
19:46:48 1 1013 0 0 NO 0 69.7 495
19:49:46 1 1013 0 0 NO 0 70.2 486
19:52:47 1 1013 0 0 NW 0 70.5 489
19:55:48 1 1012 0 0 NW 0 70.9 491
19:58:45 1 1013 0 0 NO 0 71 495
20:01:47 1 1013 0 0 NO 0 71.5 498
20:04:46 1 1013 0 0 NO 0 71.8 491
20:07:50 1 1013 0 0 NO 0 71.5 492
20:10:47 1 1013 0 0 NO 0 71.5 489
20:13:49 1 1013 0 0 NO 0 71.5 478
20:16:46 1 1013 0 0 NO 0 71.6 477
20:19:45 1 1013 0 0 NO 0 71.4 477
20:22:46 1 1013 0 0 NO 0 71.6 476
20:25:47 1 1013 0 0 NO 0 72 466
20:28:46 1 1013 0 0 NO 0 72.5 468
20:31:48 0 1013 0 0 NO 0 72.8 468
20:34:45 0 1013 0 0 NO 0 73.2 462
20:37:46 0 1013 0 0 NO 0 73.8 462
20:40:45 0 1013 0 0 NO 0 74.1 462
20:43:45 0 1013 0 0 NO 0 74.1 465
20:46:46 1 1013 0 0 NO 0 75.5 468
20:49:47 1 1013 0 0 NO 0 75.4 468
20:52:48 0 1013 0 0 NO 0 74.9 467
20:55:47 0 1013 0 0 NO 0 74.7 468
20:58:46 0 1012 0 0 NO 0 74.5 474
21:01:48 0 1013 0 0 SO 0 74.5 469
21:04:48 0 1012 0 0 NO 0 74.5 469
21:07:45 0 1013 0 0 NO 0 74.5 466
21:10:47 0 1013 0 0 NW 0 74.6 465
21:13:47 0 1013 0 0 NW 0 75.3 474
21:16:46 0 1012 0 0 NW 0 74.8 468
21:19:45 0 1013 0 0 NW 0 74.4 472
21:22:48 0 1013 0 0 NW 0 74.3 468
21:25:45 0 1013 0 0 NW 0 74.5 471
21:28:48 0 1013 0 0 NW 0 74.4 471
21:31:47 0 1013 0 0 NW 0 74.5 474
21:34:48 0 1012 0 0 NW 0 75 483
21:37:47 0 1013 0 0 NW 0 75.1 489
21:40:48 0 1012 0 0 NW 0 75.5 487
21:43:46 0 1013 0 0 NW 0 75.8 480
21:46:48 0 1013 0 0 NW 0 76.6 492
21:49:48 -1 1013 0 0 NW 0 76.7 509
21:52:46 -1 1012 0 0 NW 0 76.7 509
21:55:45 -1 1013 0 0 NW 0 76.7 494
21:58:46 -1 1013 0 0 NW 0 76.8 483
22:01:48 -1 1013 0 0 NW 0 76.9 486
22:04:48 -1 1013 0 0 NW 0 77.1 495
22:07:47 -1 1013 0 0 NW 0 77.6 500
22:10:47 -1 1013 0 0 NW 0 77.7 510
22:13:48 -1 1013 0 0 NW 0 77.6 509
22:16:48 -1 1013 0 0 NW 0 77.5 509
22:19:47 -1 1013 0 0 NW 0 77.6 495
22:22:47 -1 1013 0 0 NW 0 77.7 497
22:25:46 -1 1013 0 0 NW 0 78.1 503
22:28:47 -1 1013 0 0 NW 0 78 503
22:31:47 -1 1013 0 0 NW 0 77.5 506
22:34:50 -1 1013 0 0 NW 0 77.7 497
22:37:47 -1 1013 0 0 NW 0 78.1 501
22:40:48 -1 1013 0 0 NW 0 78.4 500
22:43:48 -1 1013 0 0 NW 0 78.6 497
22:46:49 -1 1013 0 0 NW 0 78.8 495
22:49:50 -1 1012 0 0 NW 0 78.8 501
22:52:48 -1 1013 0 0 NW 0 78.9 495
22:55:48 -1 1013 0 0 NW 0 79.4 506
22:58:48 -1 1013 0 0 NW 0 79.4 501
23:01:47 -1 1012 0 0 NW 0 79.7 509
23:04:49 -1 1013 0 0 NW 0 79.7 512
23:07:48 -1 1013 0 0 NW 0 80 518
23:10:49 -1 1013 0 0 NW 0 79.8 516
23:13:46 -1 1013 0 0 NW 0 80 515
23:16:50 -1 1013 0 0 NW 0 81.1 516
23:19:48 -1 1013 0 0 NW 0 81.2 517
23:22:46 -1 1013 0 0 NW 0 81.3 516
23:25:47 -1 1013 0 0 NW 0 81.4 520
23:28:47 -1 1013 0 0 NW 0 81.7 518
23:31:46 -1 1012 0 0 NW 0 81.7 518
23:34:48 -1 1013 0 0 NW 0 81.6 520
23:37:47 -1 1013 0 0 NW 0 81.5 524
23:40:48 -1 1013 0 0 NW 0 81.8 518
23:43:47 -1 1013 0 0 NW 0 81.7 519
23:46:48 -1 1013 0 0 NW 0 81.4 527
23:49:49 -1 1012 0 0 NW 0 81.3 533
23:52:48 -1 1012 0 0 NW 0 81.5 530
23:55:47 -1 1012 0 0 NW 0 81.4 527
23:58:47 -1 1013 0 0 NW 0 81.2 527

Letzte Änderung : 22-Jul-2022
Copyright Jens Köhler, Wolfsburg, Obere Dorfstraße 10d